Location: ?tuk?ru
(16.6754°N, 80.5957°E)
Time: 04:40:09
(UTC+00:00)

Daily predictions for brighter satellites

Satellite Brightness Start Highest point End
(mag) Time Altitude Azimuth Time Altitude Azimuth Time Altitude Azimuth
COSMO-SKYMED 1 3.0 00:01:40 10° SSE 00:05:58 70° ENE 00:10:16 10° N
GPS 2-15 Rocket1 3.3 00:01:59 10° WSW 00:06:53 81° SSE 00:11:44 10° E
Cosmos 2369 Rocket 3.6 00:02:22 10° N 00:07:39 44° ENE 00:12:55 10° SE
IUS-14 SRM-1 3.3 00:01:07 10° WNW 00:08:32 69° NNE 00:11:13 10° ESE
FALCON 9 R/B 4.0 00:20:37 10° WSW 00:57:10 77° NNW 01:03:45 10° ENE
